星链-3278 (STARLINK-3278 )

导读

STARLINK-3278是美国SpaceX星链星座中的一颗低轨通信卫星,于2022年1月6日发射升空。星链计划旨在通过近地轨道卫星群,为全球尤其是偏远区域提供高速低延迟互联网服务。该卫星运行于近地轨道,搭载可展开太阳能供电系统,具备自动避碰能力,设计寿命约5-7年,是全球覆盖卫星互联网组网的组成单元,助力缩小数字鸿沟,同时可为特殊行业通信提供支持。

基本信息
目录编号:
50830
目录名称:
STARLINK-3278
国际标识:
2022-001AD
轨道中心:
EARTH
卫星名称:
星链-3278
卫星全名:
星链-3278 (STARLINK-3278 )
卫星状态:
在轨 (已飞行1702 天)
发射日期:
2022-01-06 UTC
国别 :
美国 (US)
星等 :
--
轨道信息
数据来源 国际轨道数据 AOE轨道数据
星历时间 2026-09-03T21:01:53+0800
15小时前
查看轨道信息
2026-09-01T02:00:00+0800
3天前
查看轨道信息
半长轴 6840.892km 6840.866km
偏心率 0.0001064 0.0001273
轨道倾角 53.160° 53.159°
近地点辐角 70.546° 74.160°
升交点赤经 88.630° 101.686°
平近点角 289.565° 329.585°
近地点 462.027km 461.858km
远地点 463.483km 463.6km
周期 93.849分钟 93.848分钟
每日圈数 15.343829 15.343915
详细信息
固有亮度:
5
最大亮度:
2.5
卫星平台:
Starlink v1.5
覆盖范围:
全球
运营商:
太空探索技术公司
运营商所在国:
美国
制造商(研发单位):
太空探索技术公司
制造商所在国:
美国
使用方式:
暂无
卫星简介
星链(Starlink)计划是由太空探索技术公司(SpaceX)提出的一个巨型低轨卫星互联网星座项目,计划在2019年至2024年间在太空搭建由约1.2万颗卫星组成的“星链”网络,其中1584颗将部署在地球上空550千米处的近地轨道,并从2020年开始工作。该卫星仍在工作。
2D轨道图
3D轨道图
轨道高度分析图
轨道倾角分析图
轨道综合分析图
查看轨道综合分析图
交会数据列表
事件ID 空间交会对象 最接近时刻(TCA) 交会距离 交会风险概率(CRP) 交会风险指数(CRI) 操作
CDM_260904-173305-083005-316521
2026-09-04T
17:33:18+0000
0.135 km
中距离
5.195052E-4 高风险 0.89
CDM_260904-154105-083006-612321
2026-09-04T
15:41:14+0000
0.623 km
远距离
1.03935E-4 高风险 0.75
CDM_260903-202305-083006-520821
2026-09-03T
20:23:44+0000
0.583 km
远距离
6.886428E-5 中风险 0.72
CDM_260904-094805-083006-607721
2026-09-04T
09:48:39+0000
0.641 km
远距离
5.413148E-5 中风险 0.7
CDM_260905-124705-083006-612321
2026-09-05T
12:47:28+0000
0.809 km
远距离
4.757275E-5 中风险 0.69
CDM_260904-042005-083006-607721
2026-09-04T
04:20:22+0000
0.849 km
远距离
2.209834E-5 中风险 0.62
CDM_260904-050605-083006-477521
2026-09-04T
05:06:55+0000
0.840 km
远距离
2.17681E-5 中风险 0.62
CDM_260904-234205-083006-189321
2026-09-04T
23:42:49+0000
0.971 km
远距离
1.799743E-5 中风险 0.6
CDM_260903-233805-083006-477521
2026-09-03T
23:38:38+0000
0.931 km
远距离
1.536254E-5 中风险 0.59
CDM_260904-220905-083006-189321
2026-09-04T
22:09:02+0000
1.222 km
极远距离
8.123614E-6 低风险 0.53